Previsão horária em Almaly

Hoje, 15 Junho, Terça-feira

Tempo Temperatura Precipitação Vento Pressão Humidade
00:00 +13°C° 0 mm 2 m/s 693 mmHg 53%
01:00 +13°C° 0 mm 2 m/s 693 mmHg 52%
02:00 +12°C° 0 mm 2 m/s 693 mmHg 52%
03:00 +13°C° 0 mm 2 m/s 693 mmHg 51%
04:00 +13°C° 0 mm 2 m/s 693 mmHg 51%
05:00 +14°C° 0 mm 2 m/s 693 mmHg 50%
06:00 +16°C° 0 mm 2 m/s 694 mmHg 47%
07:00 +18°C° 0 mm 2 m/s 694 mmHg 43%
08:00 +21°C° 0 mm 2 m/s 694 mmHg 39%
09:00 +23°C° 0 mm 2 m/s 694 mmHg 37%
10:00 +24°C° 0 mm 3 m/s 694 mmHg 35%
11:00 +25°C° 0 mm 3 m/s 694 mmHg 33%
12:00 +25°C° 0 mm 3 m/s 694 mmHg 32%
13:00 +26°C° 0 mm 3 m/s 693 mmHg 31%
14:00 +27°C° 0 mm 3 m/s 693 mmHg 30%
15:00 +26°C° 0 mm 3 m/s 693 mmHg 30%
16:00 +26°C° 0 mm 3 m/s 693 mmHg 31%
17:00 +26°C° 0 mm 3 m/s 693 mmHg 32%
18:00 +22°C° 0 mm 3 m/s 693 mmHg 39%
19:00 +20°C° 0 mm 3 m/s 692 mmHg 45%
20:00 +17°C° 0 mm 2 m/s 692 mmHg 51%
21:00 +17°C° 0 mm 2 m/s 692 mmHg 51%
22:00 +17°C° 0 mm 3 m/s 692 mmHg 50%
23:00 +16°C° 0 mm 3 m/s 692 mmHg 50%

Amanhã, 16 Junho, Quarta-feira

Tempo Temperatura Precipitação Vento Pressão Humidade
00:00 +16°C° 0 mm 3 m/s 691 mmHg 50%
01:00 +16°C° 0 mm 2 m/s 691 mmHg 49%
02:00 +15°C° 0 mm 2 m/s 691 mmHg 49%
03:00 +16°C° 0 mm 2 m/s 691 mmHg 49%
04:00 +16°C° 0 mm 2 m/s 691 mmHg 49%
05:00 +16°C° 0 mm 2 m/s 692 mmHg 50%
06:00 +19°C° 0 mm 2 m/s 692 mmHg 45%
07:00 +21°C° 0 mm 2 m/s 692 mmHg 40%
08:00 +25°C° 0 mm 2 m/s 692 mmHg 36%
09:00 +26°C° 0 mm 2 m/s 692 mmHg 33%
10:00 +27°C° 0 mm 2 m/s 692 mmHg 31%
11:00 +29°C° 0 mm 3 m/s 692 mmHg 28%
12:00 +29°C° 0 mm 3 m/s 692 mmHg 27%
13:00 +30°C° 0 mm 3 m/s 692 mmHg 25%
14:00 +30°C° 0 mm 3 m/s 692 mmHg 23%
15:00 +30°C° 0 mm 3 m/s 692 mmHg 24%
16:00 +29°C° 0 mm 3 m/s 692 mmHg 25%
17:00 +29°C° 0 mm 3 m/s 692 mmHg 26%
18:00 +26°C° 0 mm 3 m/s 691 mmHg 31%
19:00 +24°C° 0 mm 3 m/s 691 mmHg 36%
20:00 +20°C° 0 mm 2 m/s 691 mmHg 41%
21:00 +20°C° 0 mm 2 m/s 691 mmHg 41%
22:00 +20°C° 0 mm 3 m/s 691 mmHg 41%
23:00 +19°C° 0 mm 3 m/s 691 mmHg 41%

Depois de amanhã, 17 Junho, Quinta-feira

Tempo Temperatura Precipitação Vento Pressão Humidade
00:00 +19°C° 0 mm 3 m/s 691 mmHg 41%
01:00 +18°C° 0 mm 2 m/s 691 mmHg 41%
02:00 +18°C° 0 mm 2 m/s 690 mmHg 41%
03:00 +18°C° 0 mm 2 m/s 691 mmHg 41%
04:00 +19°C° 0 mm 2 m/s 691 mmHg 42%
05:00 +19°C° 0 mm 2 m/s 691 mmHg 42%
06:00 +21°C° 0 mm 2 m/s 691 mmHg 39%
07:00 +25°C° 0 mm 2 m/s 691 mmHg 35%
08:00 +27°C° 0 mm 2 m/s 691 mmHg 32%
09:00 +28°C° 0 mm 2 m/s 691 mmHg 30%
10:00 +30°C° 0 mm 2 m/s 691 mmHg 29%
11:00 +31°C° 0 mm 3 m/s 691 mmHg 27%
12:00 +31°C° 0.1 mm 3 m/s 691 mmHg 25%
13:00 +33°C° 0.1 mm 3 m/s 691 mmHg 24%
14:00 +33°C° 0.1 mm 4 m/s 691 mmHg 22%
15:00 +32°C° 0.2 mm 4 m/s 691 mmHg 25%
16:00 +30°C° 0.2 mm 4 m/s 691 mmHg 29%
17:00 +29°C° 0.2 mm 4 m/s 691 mmHg 33%
18:00 +27°C° 0 mm 3 m/s 691 mmHg 37%
19:00 +25°C° 0 mm 3 m/s 690 mmHg 41%
20:00 +22°C° 0 mm 3 m/s 690 mmHg 44%
21:00 +22°C° 0 mm 3 m/s 690 mmHg 44%
22:00 +21°C° 0 mm 3 m/s 690 mmHg 44%
23:00 +21°C° 0 mm 2 m/s 690 mmHg 44%

18 Junho, Sexta-feira

Tempo Temperatura Precipitação Vento Pressão Humidade
00:00 +21°C° 0 mm 2 m/s 689 mmHg 43%
01:00 +20°C° 0 mm 2 m/s 689 mmHg 43%
02:00 +20°C° 0 mm 2 m/s 689 mmHg 42%
03:00 +21°C° 0 mm 2 m/s 689 mmHg 42%
04:00 +21°C° 0 mm 2 m/s 689 mmHg 41%
05:00 +23°C° 0 mm 2 m/s 689 mmHg 41%
06:00 +24°C° 0 mm 2 m/s 689 mmHg 38%
07:00 +25°C° 0 mm 3 m/s 690 mmHg 36%
08:00 +27°C° 0 mm 3 m/s 690 mmHg 33%
09:00 +28°C° 0 mm 3 m/s 690 mmHg 32%
10:00 +29°C° 0 mm 4 m/s 690 mmHg 30%
11:00 +30°C° 0 mm 4 m/s 690 mmHg 28%
12:00 +29°C° 0.3 mm 5 m/s 690 mmHg 35%
13:00 +27°C° 0.3 mm 5 m/s 690 mmHg 41%
14:00 +26°C° 0.3 mm 5 m/s 690 mmHg 47%
15:00 +26°C° 0.3 mm 5 m/s 690 mmHg 48%
16:00 +26°C° 0.3 mm 4 m/s 689 mmHg 49%
17:00 +25°C° 0.3 mm 3 m/s 689 mmHg 49%
18:00 +24°C° 0 mm 3 m/s 689 mmHg 50%
19:00 +24°C° 0 mm 3 m/s 689 mmHg 51%
20:00 +23°C° 0 mm 2 m/s 689 mmHg 52%
21:00 +21°C° 0 mm 2 m/s 689 mmHg 52%
22:00 +20°C° 0 mm 3 m/s 689 mmHg 51%
23:00 +20°C° 0 mm 3 m/s 689 mmHg 51%

19 Junho, Sábado

Tempo Temperatura Precipitação Vento Pressão Humidade
00:00 +19°C° 0 mm 3 m/s 689 mmHg 50%
01:00 +19°C° 0 mm 3 m/s 689 mmHg 49%
02:00 +19°C° 0 mm 2 m/s 689 mmHg 49%
03:00 +19°C° 0 mm 2 m/s 689 mmHg 48%
04:00 +19°C° 0 mm 2 m/s 689 mmHg 48%
05:00 +20°C° 0 mm 2 m/s 689 mmHg 48%
06:00 +23°C° 0 mm 2 m/s 690 mmHg 43%
07:00 +25°C° 0 mm 2 m/s 690 mmHg 38%
08:00 +28°C° 0 mm 2 m/s 690 mmHg 33%
09:00 +29°C° 0.1 mm 2 m/s 690 mmHg 31%
10:00 +29°C° 0.1 mm 3 m/s 690 mmHg 28%
11:00 +30°C° 0.1 mm 3 m/s 690 mmHg 26%
12:00 +30°C° 0.3 mm 4 m/s 689 mmHg 29%
13:00 +30°C° 0.3 mm 4 m/s 689 mmHg 32%
14:00 +29°C° 0.3 mm 4 m/s 689 mmHg 35%
15:00 +28°C° 0.4 mm 4 m/s 688 mmHg 40%
16:00 +26°C° 0.4 mm 5 m/s 688 mmHg 45%
17:00 +25°C° 0.4 mm 5 m/s 688 mmHg 51%
18:00 +23°C° 0 mm 5 m/s 688 mmHg 49%
19:00 +22°C° 0 mm 5 m/s 687 mmHg 48%
20:00 +21°C° 0 mm 4 m/s 687 mmHg 46%
21:00 +21°C° 0.1 mm 4 m/s 688 mmHg 52%
22:00 +20°C° 0.1 mm 4 m/s 689 mmHg 57%
23:00 +19°C° 0.1 mm 4 m/s 689 mmHg 62%

20 Junho, Domingo

Tempo Temperatura Precipitação Vento Pressão Humidade
00:00 +19°C° 0.1 mm 4 m/s 689 mmHg 63%
01:00 +18°C° 0.1 mm 3 m/s 689 mmHg 64%
02:00 +18°C° 0.1 mm 2 m/s 689 mmHg 65%
03:00 +18°C° 0 mm 2 m/s 689 mmHg 64%
04:00 +18°C° 0 mm 2 m/s 690 mmHg 63%
05:00 +19°C° 0 mm 2 m/s 690 mmHg 63%
06:00 +19°C° 0 mm 2 m/s 690 mmHg 63%
07:00 +20°C° 0 mm 3 m/s 691 mmHg 63%
08:00 +21°C° 0 mm 4 m/s 691 mmHg 63%
09:00 +19°C° 1.7 mm 4 m/s 692 mmHg 74%
10:00 +15°C° 1.7 mm 4 m/s 692 mmHg 85%
11:00 +13°C° 1.7 mm 5 m/s 693 mmHg 96%
12:00 +13°C° 0.7 mm 3 m/s 693 mmHg 92%
13:00 +14°C° 0.7 mm 2 m/s 693 mmHg 88%
14:00 +13°C° 0.7 mm 0 m/s 693 mmHg 84%
15:00 +15°C° 0 mm 1 m/s 692 mmHg 80%
16:00 +16°C° 0 mm 1 m/s 692 mmHg 76%
17:00 +16°C° 0 mm 2 m/s 692 mmHg 72%
18:00 +15°C° 0 mm 1 m/s 692 mmHg 77%
19:00 +14°C° 0 mm 1 m/s 693 mmHg 83%
20:00 +13°C° 0 mm 1 m/s 693 mmHg 88%
21:00 +13°C° 0 mm 1 m/s 693 mmHg 87%
22:00 +14°C° 0 mm 1 m/s 693 mmHg 86%
23:00 +14°C° 0 mm 1 m/s 693 mmHg 85%
Mostrar mais